Regional Weather Roundup
Issued by NWS

Home | Current Version | Previous Version | Graphics & Text | Print | Product List | Glossary Off
Versions: 1 2 3 4 5 6 7 8 9 10 11 12 13 14 15 16 17 18 19 20 21 22 23 24 25 26 27 28 29 30 31 32 33 34 35 36 37 38 39 40 41 42 43 44 45 46 47 48 49 50

000
ASUS43 KLSX 301707
RWRMO

WEATHER SUMMARY FOR MISSOURI
NATIONAL WEATHER SERVICE SPRINGFIELD MO
1200 PM CDT TUE JUN 30 2015

NOTE: "FAIR" INDICATES FEW OR NO CLOUDS BELOW 12,000 FEET WITH NO
       SIGNIFICANT WEATHER AND/OR OBSTRUCTIONS TO VISIBILITY.
       CURRENT SKY AND/OR WEATHER CONDITIONS ARE NOT AVAILABLE FOR
       CHILLICOTHE AND FARMINGTON.

MOZ001>031-035>038-043-044-053-054-301800-
...NORTHERN AND WESTERN MISSOURI...

CITY           SKY/WX    TMP DP  RH WIND       PRES   REMARKS
KANSAS CTY INT CLOUDY    82  67  60 NW7       29.96R
LEE`S SUMMIT   MOSUNNY   84  65  52 VRB7      29.95F
ST JOSEPH      MOSUNNY   83  66  56 W7        29.93F
CHILLICOTHE      N/A     79  68  69 W3        29.94R
KIRKSVILLE     SUNNY     78  66  66 W6        29.92S

$$
MOZ066>068-077>081-088>096-101>105-301800-
...SOUTHWEST MISSOURI...

CITY           SKY/WX    TMP DP  RH WIND       PRES   REMARKS
SPRINGFIELD    MOSUNNY   80  66  62 W9        29.99S
JOPLIN         SUNNY     83  70  64 W8        29.99F

$$
MOZ032>034-039>042-045>050-055>058-069>072-301800-
...CENTRAL MISSOURI...

CITY           SKY/WX    TMP DP  RH WIND       PRES   REMARKS
COLUMBIA       SUNNY     80  68  66 W8        29.93S
JEFFERSON CITY SUNNY     81  67  62 NW6       29.91F
ROLLA          SUNNY     79  68  69 W7        29.94S
SEDALIA        MOSUNNY   84  68  58 W7        29.95F
WHITEMAN AFB   PTSUNNY   82  67  60 NW9       29.93F
OSAGE BEACH    SUNNY     79  66  65 SW5       29.95S

$$
MOZ051-052-059>065-301800-
...EAST CENTRAL MISSOURI...

CITY           SKY/WX    TMP DP  RH WIND       PRES   REMARKS
ST LOUIS INTL  PTSUNNY   82  67  60 SW8       29.91S
SPIRIT OF STL  CLOUDY    80  70  71 VRB6      29.90S
ST CHARLES     SUNNY     78  68  71 W5        29.89S

$$
MOZ072>076-082>087-097>100-106>115-301800-
...SOUTH CENTRAL AND SOUTHEAST MISSOURI...

CITY           SKY/WX    TMP DP  RH WIND       PRES   REMARKS
CAPE GIRARDEAU SUNNY     83  67  58 VRB5      29.92S
FARMINGTON     SUNNY     81  66  61 W6        29.97F
WEST PLAINS    SUNNY     81  67  62 W8        30.00S

$$



USA.gov is the U.S. government's official web portal to all federal, state and local government web resources and services.